Location: Caltech
(34.1382°N, 118.1253°W)
Time: 06:40:40
(UTC-07:00)

Iridium 91 - Visible Passes

Search period start: 24 August 2016 00:00
Search period end: 03 September 2016 00:00
Orbit: 776 x 779 km, 86.4° (Epoch: 23 August)

Date Brightness Start Highest point End Pass type
(mag) Time Alt. Az. Time Alt. Az. Time Alt. Az.
24 Aug 8.4 05:08:05 10° SE 05:11:42 19° E 05:15:19 10° NE visible
26 Aug 6.4 05:39:56 10° SSE 05:45:00 55° E 05:50:05 10° NNE visible
27 Aug 7.7 05:07:15 10° SE 05:11:39 28° E 05:16:03 10° NNE visible
28 Aug 8.5 04:35:35 10° ESE 04:38:24 15° E 04:41:14 10° NE visible
29 Aug 5.6 05:39:52 10° S 05:45:04 83° E 05:50:18 10° N visible
30 Aug 6.8 05:06:46 10° SSE 05:11:38 42° E 05:16:32 10° NNE visible
31 Aug 8.0 04:34:24 10° SE 04:38:20 22° E 04:42:16 10° NNE visible
01 Sep 8.6 04:03:45 10° E 04:05:08 11° ENE 04:06:33 10° ENE visible
01 Sep 5.5 05:40:01 10° S 05:45:10 66° W 05:50:22 10° N visible
02 Sep 6.0 05:06:33 10° S 05:11:41 64° E 05:16:50 10° N visible
